CW6988 Weather Reports


Display with metric or nautical units.
time (UTC)temp
F
wind
direction
speed
MPH
gust
MPH
rain 1hr
in
rain 24hr
in
rain mn
in
humidity
%
barometer
mb
20260507144035 56 281 4.0 8.0 0.00 0.00 0.00 61 1017.1
20260507143526 56 265 6.0 9.0 0.00 0.00 0.00 60 1017.1
20260507143144 56 262 6.0 9.0 0.00 0.00 0.00 60 1017.0
20260507142523 55 277 4.0 6.0 0.00 0.00 0.00 63 1017.2
20260507142038 55 261 3.0 6.0 0.00 0.00 0.00 66 1017.1
20260507141655 54 289 1.0 3.0 0.00 0.00 0.00 65 1017.1
20260507141023 54 278 1.0 4.0 0.00 0.00 0.00 64 1017.1
20260507140522 54 279 2.0 6.0 0.00 0.00 0.00 64 1017.0
20260507140148 53 284 4.0 6.0 0.00 0.00 0.00 63 1017.0
20260507135527 53 275 3.0 6.0 0.00 0.00 0.00 62 1016.8
20260507135038 53 265 1.0 6.0 0.00 0.00 0.00 63 1016.8
20260507134638 53 254 2.0 8.0 0.00 0.00 0.00 62 1016.7
20260507134035 54 277 5.0 10.0 0.00 0.00 0.00 61 1016.7
20260507133523 54 285 6.0 10.0 0.00 0.00 0.00 60 1016.7
20260507133136 54 262 7.0 10.0 0.00 0.00 0.00 60 1016.6
20260507132528 54 266 7.0 12.0 0.00 0.00 0.00 62 1016.7
20260507132028 54 269 8.0 13.0 0.00 0.00 0.00 60 1016.7
20260507131622 54 268 10.0 13.0 0.00 0.00 0.00 59 1016.5
20260507131019 54 275 9.0 13.0 0.00 0.00 0.00 60 1016.5
20260507130531 54 277 7.0 12.0 0.00 0.00 0.00 61 1016.5
20260507130111 54 267 8.0 12.0 0.00 0.00 0.00 62 1016.4
20260507125531 54 264 7.0 10.0 0.00 0.00 0.00 62 1016.2
20260507125023 54 256 7.0 11.0 0.00 0.00 0.00 62 1016.2
20260507124627 54 248 6.0 10.0 0.00 0.00 0.00 62 1016.2
20260507124040 54 263 6.0 11.0 0.00 0.00 0.00 62 1016.2
20260507123519 54 236 8.0 10.0 0.00 0.00 0.00 61 1016.2
20260507123119 54 226 7.0 9.0 0.00 0.00 0.00 61 1016.1
20260507122541 54 240 4.0 7.0 0.00 0.00 0.00 61 1016.1
20260507122021 55 262 4.0 10.0 0.00 0.00 0.00 59 1016.0
20260507121642 56 259 6.0 12.0 0.00 0.00 0.00 55 1016.0
20260507121029 56 265 8.0 12.0 0.00 0.00 0.00 55 1016.1
20260507120539 56 244 7.0 10.0 0.00 0.00 0.00 55 1016.1
20260507120215 56 220 7.0 11.0 0.00 0.00 0.00 55 1016.1
20260507115522 56 250 7.0 13.0 0.00 0.00 0.00 54 1016.1
20260507115022 57 257 11.0 16.0 0.00 0.00 0.00 54 1016.1
20260507114700 57 246 11.0 16.0 0.00 0.00 0.00 54 1016.0
20260507114035 57 245 11.0 16.0 0.00 0.00 0.00 55 1016.2
20260507113520 56 250 9.0 12.0 0.00 0.00 0.00 56 1016.0
20260507113151 56 244 7.0 12.0 0.00 0.00 0.00 57 1016.1
20260507112541 56 237 8.0 11.0 0.00 0.00 0.00 59 1016.1
20260507112033 56 223 5.0 11.0 0.00 0.00 0.00 59 1016.1
20260507111705 57 258 6.0 10.0 0.00 0.00 0.00 57 1016.0
20260507111027 57 242 8.0 14.0 0.00 0.00 0.00 57 1016.0
20260507110538 56 260 9.0 14.0 0.00 0.00 0.00 59 1015.8
20260507110159 56 238 7.0 12.0 0.00 0.00 0.00 61 1015.9
20260507105533 56 229 7.0 12.0 0.00 0.00 0.00 61 1016.0
20260507105037 55 273 8.0 13.0 0.00 0.00 0.00 62 1015.9
20260507104652 56 279 10.0 13.0 0.00 0.00 0.00 63 1015.9
20260507104040 56 286 9.0 11.0 0.00 0.00 0.00 63 1015.9
20260507103533 56 275 7.0 11.0 0.00 0.00 0.00 62 1015.9
20260507103159 56 278 8.0 15.0 0.00 0.00 0.00 63 1015.9
20260507102528 56 277 10.0 17.0 0.00 0.00 0.00 63 1015.9
20260507102026 56 279 10.0 20.0 0.00 0.00 0.00 63 1015.9
20260507101702 56 293 11.0 17.0 0.00 0.00 0.00 63 1015.8
20260507101028 56 273 8.0 12.0 0.00 0.00 0.00 63 1015.8
20260507100527 56 288 7.0 10.0 0.00 0.00 0.00 64 1015.7
20260507100138 56 277 4.0 11.0 0.00 0.00 0.00 62 1015.7
20260507095532 56 300 6.0 10.0 0.00 0.00 0.00 63 1015.7
20260507095023 56 284 7.0 12.0 0.00 0.00 0.00 63 1015.8
20260507094652 57 284 8.0 16.0 0.00 0.00 0.00 63 1015.7
20260507094042 57 296 12.0 19.0 0.00 0.00 0.00 62 1015.5
20260507093534 57 286 12.0 24.0 0.00 0.00 0.00 61 1015.4
20260507093149 58 269 14.0 26.0 0.00 0.00 0.00 59 1015.3
20260507092523 58 269 18.0 26.0 0.00 0.00 0.00 59 1015.3
20260507092026 58 269 17.0 24.0 0.00 0.00 0.00 61 1015.3
20260507091652 57 275 17.0 23.0 0.00 0.00 0.00 64 1015.5
20260507091045 56 279 11.0 15.0 0.00 0.00 0.00 65 1015.5
20260507090542 56 290 11.0 15.0 0.00 0.00 0.00 66 1015.6
20260507090209 56 294 12.0 15.0 0.00 0.00 0.00 65 1015.5
20260507085522 57 281 13.0 15.0 0.00 0.00 0.00 64 1015.5
20260507085035 57 280 10.0 12.0 0.00 0.00 0.00 63 1015.6
20260507084701 57 279 10.0 13.0 0.00 0.00 0.00 63 1015.7
20260507084022 58 299 10.0 15.0 0.00 0.00 0.00 61 1015.7
20260507083535 58 296 10.0 17.0 0.00 0.00 0.00 61 1015.6
20260507083144 58 285 11.0 20.0 0.00 0.00 0.00 60 1015.4
20260507082522 59 271 15.0 25.0 0.00 0.00 0.00 59 1015.0
20260507082022 59 285 16.0 26.0 0.00 0.00 0.00 59 1014.8
20260507081641 59 275 20.0 27.0 0.00 0.00 0.00 58 1014.8
20260507081019 59 277 16.0 23.0 0.00 0.00 0.00 58 1015.0
20260507080541 59 268 14.0 21.0 0.00 0.00 0.00 58 1015.0
20260507080159 59 278 16.0 21.0 0.00 0.00 0.00 59 1014.9
20260507075526 59 279 15.0 19.0 0.00 0.00 0.00 60 1015.3
20260507075035 58 280 10.0 17.0 0.00 0.00 0.00 60 1015.4
20260507074618 59 292 8.0 13.0 0.00 0.00 0.00 59 1015.4
20260507074022 59 311 5.0 9.0 0.00 0.00 0.00 58 1015.3
20260507073542 59 300 5.0 14.0 0.00 0.00 0.00 58 1015.4
20260507073142 59 273 9.0 15.0 0.00 0.00 0.00 56 1015.4
20260507072524 59 277 10.0 18.0 0.00 0.00 0.00 59 1015.3
20260507072030 59 281 11.0 18.0 0.00 0.00 0.00 59 1015.0
20260507071636 58 275 11.0 15.0 0.00 0.00 0.00 61 1015.0
20260507071043 58 283 11.0 15.0 0.00 0.00 0.00 60 1014.8
20260507070523 59 293 10.0 12.0 0.00 0.00 0.00 59 1015.2
20260507070147 60 309 8.0 10.0 0.00 0.00 0.00 58 1015.3
20260507065521 60 280 7.0 10.0 0.00 0.00 0.00 56 1015.2
20260507065022 60 250 7.0 10.0 0.00 0.00 0.00 56 1015.3
20260507064623 60 285 7.0 11.0 0.00 0.00 0.00 57 1015.4
20260507064044 60 295 7.0 11.0 0.00 0.00 0.00 57 1015.2
20260507063542 60 275 8.0 14.0 0.00 0.00 0.00 57 1015.0
20260507063118 60 278 9.0 15.0 0.00 0.00 0.00 57 1014.5
20260507062523 61 290 13.0 19.0 0.00 0.00 0.00 55 1014.6
20260507062027 61 267 14.0 19.0 0.00 0.00 0.00 56 1014.6
20260507061632 60 278 13.0 16.0 0.00 0.00 0.00 57 1014.6
20260507061038 61 272 9.0 16.0 0.00 0.00 0.00 56 1014.7
20260507060522 62 271 11.0 20.0 0.00 0.00 0.00 54 1014.7
20260507060136 62 306 14.0 20.0 0.00 0.00 0.00 53 1014.6
20260507055521 62 261 13.0 19.0 0.00 0.00 0.00 52 1014.7
20260507055024 63 294 13.0 19.0 0.00 0.00 0.00 52 1014.6
20260507054624 63 297 16.0 20.0 0.00 0.00 0.00 51 1014.5
20260507054041 64 294 15.0 24.0 0.00 0.00 0.00 49 1014.6
20260507053535 64 293 17.0 30.0 0.00 0.00 0.00 48 1014.4
20260507053121 65 288 17.0 30.0 0.00 0.00 0.00 47 1014.5
20260507052526 65 295 23.0 28.0 0.00 0.00 0.00 47 1014.3
20260507052028 64 288 17.0 22.0 0.00 0.00 0.00 48 1014.2
20260507051633 65 302 16.0 21.0 0.00 0.00 0.00 47 1014.3
20260507051041 65 287 7.0 13.0 0.00 0.00 0.00 48 1014.4
20260507050531 65 295 9.0 13.0 0.00 0.00 0.00 47 1014.3
20260507050128 65 302 6.0 15.0 0.00 0.00 0.00 47 1014.4
20260507045530 66 294 8.0 17.0 0.00 0.00 0.00 46 1014.4
20260507045020 66 257 12.0 17.0 0.00 0.00 0.00 45 1014.4
20260507044628 66 287 12.0 21.0 0.00 0.00 0.00 44 1014.4
20260507044030 67 313 15.0 21.0 0.00 0.00 0.00 44 1014.3
20260507043531 67 292 15.0 20.0 0.00 0.00 0.00 43 1014.2
20260507043126 67 260 14.0 20.0 0.00 0.00 0.00 43 1014.1
20260507042527 67 293 12.0 23.0 0.00 0.00 0.00 43 1014.0
20260507042034 68 249 12.0 23.0 0.00 0.00 0.00 40 1014.0
20260507041600 68 292 18.0 24.0 0.00 0.00 0.00 41 1013.6
20260507041035 67 297 19.0 24.0 0.00 0.00 0.00 41 1013.6
20260507040523 67 302 15.0 24.0 0.00 0.00 0.00 42 1013.6
20260507040140 68 302 17.0 22.0 0.00 0.00 0.00 42 1013.6
20260507035534 68 297 17.0 25.0 0.00 0.00 0.00 41 1013.6
20260507035040 68 279 20.0 25.0 0.00 0.00 0.00 41 1013.5
20260507034628 67 281 16.0 22.0 0.00 0.00 0.00 43 1013.5
20260507034023 67 289 15.0 21.0 0.00 0.00 0.00 43 1013.6
20260507033531 67 292 14.0 19.0 0.00 0.00 0.00 45 1013.7
20260507033054 67 294 12.0 15.0 0.00 0.00 0.00 45 1013.6
20260507032520 68 274 11.0 15.0 0.00 0.00 0.00 43 1013.6
20260507032028 68 290 8.0 12.0 0.00 0.00 0.00 44 1013.6
20260507031629 69 297 8.0 14.0 0.00 0.00 0.00 42 1013.5
20260507031043 69 277 9.0 15.0 0.00 0.00 0.00 41 1013.6
20260507030533 69 280 10.0 17.0 0.00 0.00 0.00 42 1013.4
20260507030126 69 282 13.0 19.0 0.00 0.00 0.00 40 1013.3
20260507025528 70 284 14.0 20.0 0.00 0.00 0.00 39 1013.2
20260507025023 70 279 16.0 20.0 0.00 0.00 0.00 38 1013.3
20260507024629 71 254 15.0 23.0 0.00 0.00 0.00 36 1013.3
20260507024018 72 288 18.0 23.0 0.00 0.00 0.00 33 1013.4
20260507023531 72 267 15.0 20.0 0.00 0.00 0.00 33 1013.4
20260507023121 72 279 14.0 18.0 0.00 0.00 0.00 33 1013.2
20260507022523 73 290 13.0 20.0 0.00 0.00 0.00 33 1013.1
20260507022044 73 288 15.0 22.0 0.00 0.00 0.00 32 1013.1
20260507021628 73 275 18.0 23.0 0.00 0.00 0.00 32 1013.0
20260507021042 73 276 18.0 26.0 0.00 0.00 0.00 32 1013.0
20260507020523 74 283 17.0 26.0 0.00 0.00 0.00 32 1012.9
20260507020138 74 284 21.0 26.0 0.00 0.00 0.00 31 1012.9
20260507015522 74 304 20.0 26.0 0.00 0.00 0.00 32 1013.0
20260507015047 75 285 13.0 23.0 0.00 0.00 0.00 32 1013.1
20260507014618 76 290 16.0 24.0 0.00 0.00 0.00 28 1012.9
20260507014039 77 299 19.0 27.0 0.00 0.00 0.00 27 1012.7
20260507013521 77 292 18.0 27.0 0.00 0.00 0.00 27 1012.7
20260507013101 78 311 18.0 26.0 0.00 0.00 0.00 28 1012.8
20260507012527 78 290 14.0 28.0 0.00 0.00 0.00 27 1012.7
20260507012039 78 319 19.0 28.0 0.00 0.00 0.00 26 1012.4
20260507011632 78 298 22.0 32.0 0.00 0.00 0.00 25 1012.7
20260507011022 78 302 23.0 32.0 0.00 0.00 0.00 24 1012.6
20260507010521 78 295 24.0 30.0 0.00 0.00 0.00 24 1012.5
20260507010128 79 311 18.0 30.0 0.00 0.00 0.00 24 1012.5
20260507005523 79 306 19.0 28.0 0.00 0.00 0.00 24 1012.6
20260507005039 79 298 21.0 31.0 0.00 0.00 0.00 23 1012.5
20260507004627 79 302 23.0 31.0 0.00 0.00 0.00 23 1012.5
20260507004021 80 301 21.0 30.0 0.00 0.00 0.00 24 1012.4
20260507003528 80 332 21.0 28.0 0.00 0.00 0.00 23 1012.5
20260507003131 80 309 19.0 24.0 0.00 0.00 0.00 23 1012.5
20260507002530 81 323 18.0 24.0 0.00 0.00 0.00 23 1012.5
20260507002021 81 317 16.0 24.0 0.00 0.00 0.00 24 1012.4
20260507001630 82 317 18.0 24.0 0.00 0.00 0.00 23 1012.3
20260507001021 83 308 9.0 16.0 0.00 0.00 0.00 23 1012.5
20260507000536 83 338 9.0 15.0 0.00 0.00 0.00 24 1012.4
20260507000135 84 300 11.0 17.0 0.00 0.00 0.00 23 1012.2
20260506235539 84 276 11.0 21.0 0.00 0.00 0.00 22 1012.4
20260506235043 84 279 15.0 21.0 0.00 0.00 0.00 22 1012.4
20260506234559 85 269 12.0 21.0 0.00 0.00 0.00 23 1012.4
20260506234037 85 285 14.0 21.0 0.00 0.00 0.00 26 1012.3
20260506233521 84 296 8.0 19.0 0.00 0.00 0.00 25 1012.2
20260506233129 83 277 9.0 15.0 0.00 0.00 0.00 31 1012.3
20260506232533 83 206 6.0 17.0 0.00 0.00 0.00 33 1012.3
20260506232027 82 200 7.0 17.0 0.00 0.00 0.00 34 1012.0
20260506231637 82 201 8.0 14.0 0.00 0.00 0.00 34 1012.1
20260506231020 82 202 3.0 12.0 0.00 0.00 0.00 32 1012.0
20260506230531 82 210 5.0 20.0 0.00 0.00 0.00 32 1012.0
20260506230131 83 223 11.0 19.0 0.00 0.00 0.00 31 1012.1
20260506225523 83 209 12.0 19.0 0.00 0.00 0.00 31 1012.0
20260506225023 84 211 10.0 18.0 0.00 0.00 0.00 33 1012.1
20260506224640 84 227 6.0 19.0 0.00 0.00 0.00 32 1012.1
20260506224020 84 211 7.0 19.0 0.00 0.00 0.00 33 1012.2
20260506223530 84 217 8.0 22.0 0.00 0.00 0.00 32 1012.2
20260506223108 84 215 11.0 22.0 0.00 0.00 0.00 32 1012.2
20260506222523 84 182 9.0 20.0 0.00 0.00 0.00 35 1012.3
20260506222034 83 181 9.0 20.0 0.00 0.00 0.00 36 1012.3
20260506221632 83 167 11.0 19.0 0.00 0.00 0.00 37 1012.4
20260506221029 83 175 11.0 19.0 0.00 0.00 0.00 37 1012.6
20260506220543 83 202 7.0 17.0 0.00 0.00 0.00 40 1012.6
20260506220131 82 175 9.0 17.0 0.00 0.00 0.00 37 1012.9
20260506215516 82 178 9.0 19.0 0.00 0.00 0.00 36 1012.8
20260506215038 82 193 10.0 19.0 0.00 0.00 0.00 35 1012.9
20260506214627 82 197 10.0 18.0 0.00 0.00 0.00 35 1012.9
20260506214032 83 215 6.0 17.0 0.00 0.00 0.00 36 1012.9
20260506213536 83 186 3.0 16.0 0.00 0.00 0.00 37 1013.0
20260506213134 82 114 9.0 17.0 0.00 0.00 0.00 37 1012.9
20260506212533 81 213 9.0 18.0 0.00 0.00 0.00 36 1013.0
20260506212022 80 212 10.0 18.0 0.00 0.00 0.00 37 1013.0
20260506211558 80 234 7.0 17.0 0.00 0.00 0.00 38 1013.1
20260506211035 80 210 10.0 17.0 0.00 0.00 0.00 37 1013.0
20260506210541 80 196 9.0 16.0 0.00 0.00 0.00 37 1013.2
20260506210120 81 202 9.0 20.0 0.00 0.00 0.00 38 1013.2
20260506205530 82 200 12.0 17.0 0.00 0.00 0.00 37 1013.2
20260506205022 83 168 10.0 15.0 0.00 0.00 0.00 39 1013.3
20260506204612 82 163 7.0 17.0 0.00 0.00 0.00 39 1013.3
20260506204027 82 184 10.0 17.0 0.00 0.00 0.00 40 1013.3
20260506203518 81 156 9.0 18.0 0.00 0.00 0.00 41 1013.3
20260506203144 81 183 9.0 18.0 0.00 0.00 0.00 39 1013.4
20260506202515 81 206 10.0 16.0 0.00 0.00 0.00 38 1013.5
20260506202039 81 198 8.0 16.0 0.00 0.00 0.00 41 1013.6
20260506201643 81 188 9.0 15.0 0.00 0.00 0.00 42 1013.5
20260506201028 81 194 6.0 18.0 0.00 0.00 0.00 42 1013.5
20260506200534 81 187 11.0 18.0 0.00 0.00 0.00 42 1013.7
20260506200149 80 159 7.0 16.0 0.00 0.00 0.00 41 1013.6
20260506195541 80 175 10.0 14.0 0.00 0.00 0.00 43 1013.7
20260506195022 80 168 10.0 14.0 0.00 0.00 0.00 43 1013.9
20260506194612 80 181 9.0 15.0 0.00 0.00 0.00 44 1014.1
20260506194035 80 155 9.0 17.0 0.00 0.00 0.00 43 1014.1
20260506193541 80 188 7.0 14.0 0.00 0.00 0.00 44 1014.2
20260506193151 80 161 7.0 14.0 0.00 0.00 0.00 44 1014.3
20260506192535 80 163 9.0 17.0 0.00 0.00 0.00 44 1014.2
20260506192038 79 161 8.0 13.0 0.00 0.00 0.00 44 1014.3
20260506191651 79 200 9.0 14.0 0.00 0.00 0.00 44 1014.3
20260506191029 79 189 10.0 13.0 0.00 0.00 0.00 43 1014.4
20260506190543 78 169 7.0 14.0 0.00 0.00 0.00 45 1014.3
20260506190147 78 172 9.0 15.0 0.00 0.00 0.00 45 1014.2
20260506185532 78 212 9.0 13.0 0.00 0.00 0.00 44 1014.4
20260506185030 78 194 7.0 11.0 0.00 0.00 0.00 45 1014.3
20260506184635 77 126 8.0 13.0 0.00 0.00 0.00 46 1014.4
20260506184026 77 177 8.0 14.0 0.00 0.00 0.00 44 1014.6
20260506183540 77 190 9.0 14.0 0.00 0.00 0.00 45 1014.6
20260506183148 77 181 8.0 15.0 0.00 0.00 0.00 47 1014.5
20260506182530 76 182 7.0 15.0 0.00 0.00 0.00 47 1014.6
20260506182027 76 182 9.0 15.0 0.00 0.00 0.00 47 1014.7
20260506181630 76 182 7.0 15.0 0.00 0.00 0.00 48 1014.7
20260506181030 75 183 8.0 15.0 0.00 0.00 0.00 49 1014.7
20260506180534 75 195 10.0 15.0 0.00 0.00 0.00 48 1014.7
20260506180155 75 180 8.0 15.0 0.00 0.00 0.00 49 1014.7
20260506175523 75 174 7.0 15.0 0.00 0.00 0.00 49 1014.7
20260506175022 75 169 8.0 15.0 0.00 0.00 0.00 50 1014.7
20260506174651 74 187 9.0 15.0 0.00 0.00 0.00 50 1014.8
20260506174022 74 217 7.0 12.0 0.00 0.00 0.00 51 1014.9
20260506173535 73 182 8.0 14.0 0.00 0.00 0.00 51 1014.9
20260506173152 73 167 8.0 14.0 0.00 0.00 0.00 51 1014.9
20260506172542 73 196 8.0 13.0 0.00 0.00 0.00 51 1014.9
20260506172030 73 180 6.0 15.0 0.00 0.00 0.00 54 1014.9
20260506171657 73 159 9.0 16.0 0.00 0.00 0.00 53 1014.9
20260506171026 73 218 8.0 15.0 0.00 0.00 0.00 52 1015.1
20260506170538 72 153 6.0 11.0 0.00 0.00 0.00 54 1015.1
20260506170155 72 155 7.0 11.0 0.00 0.00 0.00 54 1015.2
20260506165541 72 177 6.0 11.0 0.00 0.00 0.00 55 1015.2
20260506165036 71 185 6.0 12.0 0.00 0.00 0.00 55 1015.3
20260506164712 71 165 6.0 14.0 0.00 0.00 0.00 57 1015.4
20260506164021 71 186 7.0 12.0 0.00 0.00 0.00 56 1015.3
20260506163525 70 176 8.0 12.0 0.00 0.00 0.00 56 1015.4
20260506163207 70 148 7.0 14.0 0.00 0.00 0.00 58 1015.3
20260506162522 69 184 7.0 13.0 0.00 0.00 0.00 57 1015.3
20260506162022 69 184 6.0 12.0 0.00 0.00 0.00 59 1015.3
20260506161708 68 161 6.0 12.0 0.00 0.00 0.00 59 1015.4
20260506161037 68 181 7.0 11.0 0.00 0.00 0.00 59 1015.3
20260506160522 68 158 7.0 11.0 0.00 0.00 0.00 60 1015.3
20260506160204 68 188 4.0 10.0 0.00 0.00 0.00 61 1015.2
20260506155519 68 190 6.0 10.0 0.00 0.00 0.00 60 1015.3
20260506155042 67 225 2.0 6.0 0.00 0.00 0.00 62 1015.2
20260506154703 67 198 3.0 9.0 0.00 0.00 0.00 63 1015.1
20260506154034 66 213 6.0 9.0 0.00 0.00 0.00 64 1015.1
20260506153527 66 191 5.0 10.0 0.00 0.00 0.00 64 1015.1
20260506153115 65 164 6.0 11.0 0.00 0.00 0.00 65 1015.1
20260506152546 65 163 7.0 12.0 0.00 0.00 0.00 65 1015.1
20260506152023 64 161 5.0 10.0 0.00 0.00 0.00 67 1015.0
20260506151704 64 174 5.0 10.0 0.00 0.00 0.00 70 1015.0
20260506151038 63 198 4.0 8.0 0.00 0.00 0.00 72 1015.0
20260506150521 62 170 2.0 7.0 0.00 0.00 0.00 74 1015.0
20260506150211 61 187 3.0 6.0 0.00 0.00 0.00 75 1014.9
20260506145523 60 199 0.0 3.0 0.00 0.00 0.00 78 1015.0
20260506145037 59 142 0.0 3.0 0.00 0.00 0.00 80 1015.0
20260506144630 58 84 0.0 2.0 0.00 0.00 0.00 82 1015.0